INTELSAT 37E (IS-37E)

Last updated on June 27, 2019, 3:44 a.m. UTC

1 42950U 17059A   19177.78737220 -.00000133  00000-0  00000+0 0  9990
2 42950   0.0190  12.1819 0002320  92.3816  75.5079  1.00269884  6502
UTC
Height (km)
Latitude
Longitude
Inclination
Orbital Period
UTC large
Height (km)
Speed (km/s)
/
Latitude / Longitude
Inclination (degrees)
Orbital Period (minutes)
Azimuth
Elevation
Range (km)
Doppler Factor
iOS Compass Heading
iOS Angle

Next 30 passes for location: Hong Kong

Rise time Rise Azimuth (degrees) Set time Set Azimuth (degrees) Duration Max altitude (degrees)

No matching passes for this satellites